Time,TemperatureF,DewpointF,PressureIn,WindDirection,WindDirectionDegrees,WindSpeedMPH,WindSpeedGustMPH,Humidity,HourlyPrecipIn,Conditions,Clouds,dailyrainin,SoftwareType,DateUTC
2013-05-03 00:05:00,55.6,49.0,30.03,NW,322,0.0,-999.0,78,-99.99,,,0.00,weatherlink.com 1.10,2013-05-03 04:05:00,
2013-05-03 00:20:00,54.7,48.0,30.04,NW,321,0.0,-999.0,79,-99.99,,,0.00,weatherlink.com 1.10,2013-05-03 04:20:00,
2013-05-03 00:35:00,54.3,48.0,30.03,NW,324,0.0,-999.0,80,-99.99,,,0.00,weatherlink.com 1.10,2013-05-03 04:35:00,
2013-05-03 00:50:00,54.1,48.0,30.03,NW,319,0.0,-999.0,80,-99.99,,,0.00,weatherlink.com 1.10,2013-05-03 04:50:00,
2013-05-03 01:05:00,53.4,48.0,30.03,NW,323,0.0,-999.0,81,-99.99,,,0.00,weatherlink.com 1.10,2013-05-03 05:05:00,
2013-05-03 01:21:00,53.1,47.0,30.02,NW,316,5.0,-999.0,81,-99.99,,,0.00,weatherlink.com 1.10,2013-05-03 05:21:00,
2013-05-03 01:36:00,52.5,47.0,30.02,NW,320,3.0,-999.0,81,-99.99,,,0.00,weatherlink.com 1.10,2013-05-03 05:36:00,
2013-05-03 01:51:00,52.3,47.0,30.01,NW,321,0.0,-999.0,82,-99.99,,,0.00,weatherlink.com 1.10,2013-05-03 05:51:00,
2013-05-03 02:06:00,51.9,47.0,30.01,NW,321,0.0,-999.0,83,-99.99,,,0.00,weatherlink.com 1.10,2013-05-03 06:06:00,
2013-05-03 02:21:00,51.5,47.0,30.00,NW,321,0.0,-999.0,83,-99.99,,,0.00,weatherlink.com 1.10,2013-05-03 06:21:00,
2013-05-03 02:36:00,51.3,46.0,30.00,NW,321,0.0,-999.0,83,-99.99,,,0.00,weatherlink.com 1.10,2013-05-03 06:36:00,
2013-05-03 02:51:00,51.0,46.0,30.00,NW,321,1.0,-999.0,83,-99.99,,,0.00,weatherlink.com 1.10,2013-05-03 06:51:00,
2013-05-03 03:06:00,50.8,46.0,30.00,NW,321,0.0,-999.0,83,-99.99,,,0.00,weatherlink.com 1.10,2013-05-03 07:06:00,
2013-05-03 03:21:00,50.6,46.0,29.99,NW,322,0.0,-999.0,83,-99.99,,,0.00,weatherlink.com 1.10,2013-05-03 07:21:00,
2013-05-03 03:36:00,50.4,45.0,29.99,NW,321,0.0,-999.0,83,-99.99,,,0.00,weatherlink.com 1.10,2013-05-03 07:36:00,
2013-05-03 03:52:00,50.1,46.0,29.99,NW,321,0.0,-999.0,84,-99.99,,,0.00,weatherlink.com 1.10,2013-05-03 07:52:00,
2013-05-03 04:07:00,50.2,46.0,29.99,NW,321,0.0,-999.0,84,-99.99,,,0.00,weatherlink.com 1.10,2013-05-03 08:07:00,
2013-05-03 04:22:00,49.8,45.0,29.99,NW,322,0.0,-999.0,84,-99.99,,,0.00,weatherlink.com 1.10,2013-05-03 08:22:00,
2013-05-03 04:37:00,49.7,45.0,29.99,NW,321,0.0,-999.0,84,-99.99,,,0.00,weatherlink.com 1.10,2013-05-03 08:37:00,
2013-05-03 04:52:00,49.4,45.0,29.99,NW,321,0.0,-999.0,84,-99.99,,,0.00,weatherlink.com 1.10,2013-05-03 08:52:00,
2013-05-03 05:07:00,49.2,45.0,29.99,NW,321,0.0,-999.0,85,-99.99,,,0.00,weatherlink.com 1.10,2013-05-03 09:07:00,
2013-05-03 05:22:00,49.2,45.0,29.99,NW,321,0.0,-999.0,85,-99.99,,,0.00,weatherlink.com 1.10,2013-05-03 09:22:00,
2013-05-03 05:37:00,49.3,45.0,29.99,NW,322,0.0,-999.0,85,-99.99,,,0.00,weatherlink.com 1.10,2013-05-03 09:37:00,
2013-05-03 05:52:00,49.7,45.0,29.98,NW,321,0.0,-999.0,85,-99.99,,,0.00,weatherlink.com 1.10,2013-05-03 09:52:00,
2013-05-03 06:07:00,49.9,46.0,29.99,NW,321,0.0,-999.0,85,-99.99,,,0.00,weatherlink.com 1.10,2013-05-03 10:07:00,
2013-05-03 06:22:00,50.1,46.0,29.98,NW,322,0.0,-999.0,85,-99.99,,,0.00,weatherlink.com 1.10,2013-05-03 10:22:00,
2013-05-03 06:37:00,50.6,46.0,29.98,NW,322,0.0,-999.0,85,-99.99,,,0.00,weatherlink.com 1.10,2013-05-03 10:37:00,
2013-05-03 06:52:00,51.3,47.0,29.98,NW,321,0.0,-999.0,85,-99.99,,,0.00,weatherlink.com 1.10,2013-05-03 10:52:00,
2013-05-03 07:08:00,51.9,48.0,29.99,NW,322,0.0,-999.0,85,-99.99,,,0.00,weatherlink.com 1.10,2013-05-03 11:08:00,
2013-05-03 07:23:00,52.5,48.0,29.99,NW,321,0.0,-999.0,84,-99.99,,,0.00,weatherlink.com 1.10,2013-05-03 11:23:00,
2013-05-03 07:38:00,53.5,49.0,29.99,NW,322,0.0,-999.0,84,-99.99,,,0.00,weatherlink.com 1.10,2013-05-03 11:38:00,
2013-05-03 07:53:00,54.6,50.0,29.99,NW,321,0.0,-999.0,84,-99.99,,,0.00,weatherlink.com 1.10,2013-05-03 11:53:00,
2013-05-03 08:08:00,55.7,51.0,29.99,NW,322,0.0,-999.0,84,-99.99,,,0.00,weatherlink.com 1.10,2013-05-03 12:08:00,
2013-05-03 08:23:00,57.8,53.0,29.99,East,101,0.0,-999.0,83,-99.99,,,0.00,weatherlink.com 1.10,2013-05-03 12:23:00,
2013-05-03 08:38:00,59.9,54.0,29.99,East,100,2.0,-999.0,81,-99.99,,,0.00,weatherlink.com 1.10,2013-05-03 12:38:00,
2013-05-03 08:53:00,61.6,55.0,29.99,ESE,105,2.0,-999.0,80,-99.99,,,0.00,weatherlink.com 1.10,2013-05-03 12:53:00,
2013-05-03 09:08:00,63.2,57.0,29.98,ESE,107,0.0,-999.0,79,-99.99,,,0.00,weatherlink.com 1.10,2013-05-03 13:08:00,
2013-05-03 09:24:00,65.7,58.0,29.98,ESE,109,6.0,-999.0,76,-99.99,,,0.00,weatherlink.com 1.10,2013-05-03 13:24:00,
2013-05-03 09:39:00,67.0,58.0,29.98,ESE,119,6.0,-999.0,72,-99.99,,,0.00,weatherlink.com 1.10,2013-05-03 13:39:00,
2013-05-03 09:54:00,67.8,57.0,29.98,ESE,115,5.0,-999.0,69,-99.99,,,0.00,weatherlink.com 1.10,2013-05-03 13:54:00,
2013-05-03 10:09:00,67.9,58.0,29.98,ESE,118,7.0,-999.0,70,-99.99,,,0.00,weatherlink.com 1.10,2013-05-03 14:09:00,
2013-05-03 10:24:00,69.5,58.0,29.97,ESE,123,2.0,-999.0,68,-99.99,,,0.00,weatherlink.com 1.10,2013-05-03 14:24:00,
2013-05-03 10:39:00,70.3,59.0,29.97,ESE,112,5.0,-999.0,67,-99.99,,,0.00,weatherlink.com 1.10,2013-05-03 14:39:00,
2013-05-03 10:54:00,70.5,59.0,29.97,SE,126,4.0,-999.0,67,-99.99,,,0.00,weatherlink.com 1.10,2013-05-03 14:54:00,
2013-05-03 11:09:00,74.0,61.0,29.97,ESE,111,7.0,-999.0,63,-99.99,,,0.00,weatherlink.com 1.10,2013-05-03 15:09:00,
2013-05-03 11:24:00,73.1,58.0,29.97,SE,128,5.0,-999.0,60,-99.99,,,0.00,weatherlink.com 1.10,2013-05-03 15:24:00,
2013-05-03 11:40:00,73.0,59.0,29.97,ESE,114,5.0,-999.0,61,-99.99,,,0.00,weatherlink.com 1.10,2013-05-03 15:40:00,
2013-05-03 11:55:00,73.7,60.0,29.97,SE,136,7.0,-999.0,62,-99.99,,,0.00,weatherlink.com 1.10,2013-05-03 15:55:00,
2013-05-03 12:10:00,75.8,59.0,29.96,SE,136,8.0,-999.0,57,-99.99,,,0.00,weatherlink.com 1.10,2013-05-03 16:10:00,
2013-05-03 12:25:00,77.0,60.0,29.96,SE,134,5.0,-999.0,57,-99.99,,,0.00,weatherlink.com 1.10,2013-05-03 16:25:00,
2013-05-03 12:40:00,76.7,62.0,29.96,SE,144,5.0,-999.0,60,-99.99,,,0.00,weatherlink.com 1.10,2013-05-03 16:40:00,
2013-05-03 12:55:00,78.2,61.0,29.95,SE,136,6.0,-999.0,56,-99.99,,,0.00,weatherlink.com 1.10,2013-05-03 16:55:00,
2013-05-03 13:10:00,77.2,59.0,29.94,SE,146,7.0,-999.0,54,-99.99,,,0.00,weatherlink.com 1.10,2013-05-03 17:10:00,
2013-05-03 13:25:00,76.8,58.0,29.94,SE,142,4.0,-999.0,53,-99.99,,,0.00,weatherlink.com 1.10,2013-05-03 17:25:00,
2013-05-03 13:40:00,75.9,59.0,29.94,East,94,7.0,-999.0,56,-99.99,,,0.00,weatherlink.com 1.10,2013-05-03 17:40:00,
2013-05-03 13:55:00,76.0,59.0,29.94,SE,130,4.0,-999.0,56,-99.99,,,0.00,weatherlink.com 1.10,2013-05-03 17:55:00,
2013-05-03 14:10:00,75.2,58.0,29.94,ESE,123,2.0,-999.0,56,-99.99,,,0.00,weatherlink.com 1.10,2013-05-03 18:10:00,
2013-05-03 14:26:00,75.1,58.0,29.93,SE,127,5.0,-999.0,56,-99.99,,,0.00,weatherlink.com 1.10,2013-05-03 18:26:00,
2013-05-03 14:41:00,75.4,57.0,29.93,ESE,107,12.0,-999.0,54,-99.99,,,0.00,weatherlink.com 1.10,2013-05-03 18:41:00,
2013-05-03 14:56:00,76.4,58.0,29.93,ESE,112,6.0,-999.0,54,-99.99,,,0.00,weatherlink.com 1.10,2013-05-03 18:56:00,
2013-05-03 15:11:00,76.4,57.0,29.92,ESE,111,6.0,-999.0,51,-99.99,,,0.00,weatherlink.com 1.10,2013-05-03 19:11:00,
2013-05-03 15:26:00,76.2,57.0,29.92,SE,127,4.0,-999.0,51,-99.99,,,0.00,weatherlink.com 1.10,2013-05-03 19:26:00,
2013-05-03 15:41:00,76.0,56.0,29.92,SE,128,16.0,-999.0,51,-99.99,,,0.00,weatherlink.com 1.10,2013-05-03 19:41:00,
2013-05-03 15:56:00,75.8,56.0,29.91,SE,141,5.0,-999.0,50,-99.99,,,0.00,weatherlink.com 1.10,2013-05-03 19:56:00,
2013-05-03 16:11:00,76.0,56.0,29.91,SE,142,7.0,-999.0,51,-99.99,,,0.00,weatherlink.com 1.10,2013-05-03 20:11:00,
2013-05-03 16:26:00,75.9,56.0,29.91,SE,146,9.0,-999.0,50,-99.99,,,0.00,weatherlink.com 1.10,2013-05-03 20:26:00,
2013-05-03 16:41:00,76.0,56.0,29.91,ESE,107,5.0,-999.0,50,-99.99,,,0.00,weatherlink.com 1.10,2013-05-03 20:41:00,
2013-05-03 16:56:00,76.2,56.0,29.90,SE,126,9.0,-999.0,49,-99.99,,,0.00,weatherlink.com 1.10,2013-05-03 20:56:00,
2013-05-03 17:11:00,75.9,55.0,29.90,ESE,103,7.0,-999.0,48,-99.99,,,0.00,weatherlink.com 1.10,2013-05-03 21:11:00,
2013-05-03 17:27:00,75.3,55.0,29.90,ESE,119,14.0,-999.0,49,-99.99,,,0.00,weatherlink.com 1.10,2013-05-03 21:27:00,
2013-05-03 17:42:00,75.3,54.0,29.90,ESE,108,9.0,-999.0,48,-99.99,,,0.00,weatherlink.com 1.10,2013-05-03 21:42:00,
2013-05-03 17:57:00,75.4,55.0,29.90,East,95,13.0,-999.0,49,-99.99,,,0.00,weatherlink.com 1.10,2013-05-03 21:57:00,
2013-05-03 18:12:00,75.1,54.0,29.90,ESE,119,18.0,-999.0,48,-99.99,,,0.00,weatherlink.com 1.10,2013-05-03 22:12:00,
2013-05-03 18:27:00,75.1,53.0,29.90,ESE,116,14.0,-999.0,47,-99.99,,,0.00,weatherlink.com 1.10,2013-05-03 22:27:00,
2013-05-03 18:42:00,74.9,53.0,29.90,SE,126,11.0,-999.0,47,-99.99,,,0.00,weatherlink.com 1.10,2013-05-03 22:42:00,
2013-05-03 18:57:00,74.5,52.0,29.89,ESE,118,11.0,-999.0,46,-99.99,,,0.00,weatherlink.com 1.10,2013-05-03 22:57:00,
2013-05-03 19:12:00,73.9,53.0,29.90,ESE,122,9.0,-999.0,48,-99.99,,,0.00,weatherlink.com 1.10,2013-05-03 23:12:00,
2013-05-03 19:27:00,73.7,53.0,29.89,ESE,123,11.0,-999.0,48,-99.99,,,0.00,weatherlink.com 1.10,2013-05-03 23:27:00,
2013-05-03 19:42:00,73.3,52.0,29.90,ESE,113,8.0,-999.0,48,-99.99,,,0.00,weatherlink.com 1.10,2013-05-03 23:42:00,
2013-05-03 19:57:00,72.9,52.0,29.90,ESE,117,8.0,-999.0,48,-99.99,,,0.00,weatherlink.com 1.10,2013-05-03 23:57:00,
2013-05-03 20:12:00,72.5,52.0,29.91,ESE,120,8.0,-999.0,49,-99.99,,,0.00,weatherlink.com 1.10,2013-05-04 00:12:00,
2013-05-03 20:27:00,71.8,52.0,29.91,ESE,113,7.0,-999.0,50,-99.99,,,0.00,weatherlink.com 1.10,2013-05-04 00:27:00,
2013-05-03 20:42:00,71.2,52.0,29.91,ESE,111,6.0,-999.0,51,-99.99,,,0.00,weatherlink.com 1.10,2013-05-04 00:42:00,
2013-05-03 20:58:00,70.6,52.0,29.91,ESE,103,6.0,-999.0,52,-99.99,,,0.00,weatherlink.com 1.10,2013-05-04 00:58:00,
2013-05-03 21:13:00,70.3,52.0,29.91,ESE,112,6.0,-999.0,52,-99.99,,,0.00,weatherlink.com 1.10,2013-05-04 01:13:00,
2013-05-03 21:28:00,70.2,52.0,29.92,ESE,114,5.0,-999.0,52,-99.99,,,0.00,weatherlink.com 1.10,2013-05-04 01:28:00,
2013-05-03 21:43:00,69.7,52.0,29.92,ESE,111,5.0,-999.0,54,-99.99,,,0.00,weatherlink.com 1.10,2013-05-04 01:43:00,
2013-05-03 21:58:00,69.4,52.0,29.92,ESE,117,4.0,-999.0,54,-99.99,,,0.00,weatherlink.com 1.10,2013-05-04 01:58:00,
2013-05-03 22:13:00,69.1,52.0,29.92,ESE,113,6.0,-999.0,54,-99.99,,,0.00,weatherlink.com 1.10,2013-05-04 02:13:00,
2013-05-03 22:28:00,69.0,52.0,29.92,ESE,115,5.0,-999.0,54,-99.99,,,0.00,weatherlink.com 1.10,2013-05-04 02:28:00,
2013-05-03 22:43:00,68.5,52.0,29.92,SE,126,8.0,-999.0,56,-99.99,,,0.00,weatherlink.com 1.10,2013-05-04 02:43:00,
2013-05-03 22:58:00,68.7,51.0,29.92,ESE,119,11.0,-999.0,54,-99.99,,,0.00,weatherlink.com 1.10,2013-05-04 02:58:00,
2013-05-03 23:13:00,68.1,51.0,29.93,ESE,120,6.0,-999.0,55,-99.99,,,0.00,weatherlink.com 1.10,2013-05-04 03:13:00,
2013-05-03 23:28:00,67.5,51.0,29.93,ESE,111,4.0,-999.0,56,-99.99,,,0.00,weatherlink.com 1.10,2013-05-04 03:28:00,
2013-05-03 23:43:00,66.8,50.0,29.92,ESE,110,6.0,-999.0,56,-99.99,,,0.00,weatherlink.com 1.10,2013-05-04 03:43:00,
2013-05-03 23:58:00,66.8,49.0,29.93,ESE,111,5.0,-999.0,54,-99.99,,,0.00,weatherlink.com 1.10,2013-05-04 03:58:00,